Location: Easthampton
(42.2676°N, 72.6690°W)
Time: 19:01:17
(UTC+00:00)

RS-44 - Pass Details

Date: 28 April 2024
Orbit: 1174 x 1511 km, 82.5° (Epoch: 28 April)

Event Time Altitude Azimuth Distance (km) Brightness Sun altitude
Rises 01:59:20 0° 241° (WSW) 4,601 ? -21.4°
Reaches altitude 10° 02:03:41 10° 260° (W) 3,584 ? -22.0°
Maximum altitude 02:08:54 17° 298° (WNW) 2,996 ? -22.6°
Drops below altitude 10° 02:13:59 10° 337° (NNW) 3,453 ? -23.3°
Sets 02:18:06 0° 357° (N) 4,364 ? -23.8°
